DECAYED

CZ-6A DEB, 54603 (Decayed)

Orbit data source: Space-Track

CZ-6A DEB, 54603 was space debris in SSO originally from a launch on Fri, 11 Nov 2022 UTC launched from the Taiyaun Space Center, China (TSC). Debris objects in space refer to the collection of defunct objects orbiting the Earth. Examples of debris include non-operational satellites, rocket bodies, and fragments generated from explosions, collisions, or faulty payload assembly.

Not visible in the next 10 days
Identifier
54603, 2022-151ND
Orbit
Decayed
Country
Flag of CNCN / PRC
Related business
Manufacturer
SAST
Mission
Decayed spacecraft
Bus & Motor
Unknown
Mass
Unknown
Launch date (UTC)
2022-11-11 (4 years ago)
Launch vehicle
Unknown
Launch site
Taiyaun Space Center, China (TSC)
Object type
Payload
Rocket body
Debris
Shape & HBR
Unknown shape, 0.1 m
Radar Cross Section
Medium (>0.1 m² and <1 m²)

Expand to show TLE details & history
Last TLE update: 1 year ago

TLE from 1 year ago
0 CZ-6A DEB
1 54603U 22151ND  25215.14693962  .07169223  28806+0  19354-1 0  9990
2 54603  98.6133 292.7898 0019915 287.3615  72.5484 16.05596510 73549
Epoch: 2025-08-03T03:31Z
TLE epoch observation values (Epoch: 2025-08-03T03:31:35.583Z)
Latitude
-0.00001°
Longitude
-72.0814°
Altitude
258.177 km
Speed
7.754 km/s
True Right ascension
19h 31m 09s
True Declination
0° 00' 00"
Sunlit
Object was in full shadow at epoch
Visualization orbit readout
Latitude
Unknown
Longitude
Unknown
Altitude
Unknown
Speed
Unknown
Apparent Right ascension
Unknown
Apparent Declination
Unknown
Sunlit
N/A
Visualization observer readout
Local Sidereal Time
06:27:29
Azimuth
Unknown
Elevation
Unknown
Doppler factor
Unknown
Orbital elements
Apogee altitude
269.073 km
Perigee altitude
242.65 km
Semi-major axis
6,633.998 km
Eccentricity
0.00199
Inclination
98.6133°
RAAN
292.7898°
Arg. of periapsis
287.3615°
True anomaly
72.76627°
Mean anomaly
72.5484°
Eccentric anomaly
72.65732°
Mean motion
4.0168 °/min
Orbital period
89.62 mins
BSTAR
0.019354
Loading maneuver chart data...
Computing Atmospheric mass density...
Loading historical data...
Loading historical data...
Loading historical data...
Loading historical data...
Loading historical data...
Loading historical data...
Loading historical data...

Documentation

Showing up to 5 results
|